GEFSMW_500_meanwind_162.txt.gz
Wind_Speed
12 12 12 12 12 13 14 15 15 14 14 14 15 15 15 14 13 13 13 13 12 11 10 10 11 11 10 10 10 9 9 8 8 8 9 9 10 11 11 12 13 14 15
13 12 12 12 12 12 13 14 15 15 14 14 14 14 14 13 13 13 12 12 12 11 10 10 11 10 10 9 9 9 8 8 8 8 8 8 9 9 10 11 13 13 14
13 13 12 12 12 12 12 14 16 15 14 14 14 14 13 13 13 12 12 11 12 11 10 9 10 10 10 9 8 8 8 8 8 8 8 8 8 8 9 10 10 11 11
13 12 12 11 11 12 12 14 16 15 15 15 14 14 13 13 13 12 12 11 11 10 10 9 9 9 9 8 8 8 8 8 8 8 8 8 8 8 9 9 9 10 10
12 11 11 11 11 11 12 13 15 15 14 14 14 14 14 13 13 13 12 11 10 10 9 9 9 8 8 8 7 7 7 7 7 7 7 8 8 9 9 9 9 10 10
11 11 11 11 11 12 12 12 13 14 14 13 13 13 13 13 13 13 12 11 10 9 8 8 8 8 8 7 7 6 6 6 6 7 7 8 8 8 8 8 9 10 11
11 11 11 10 10 11 11 12 12 13 13 13 12 12 13 13 13 13 12 11 10 9 8 8 8 7 7 6 6 6 6 6 6 7 6 7 7 8 8 9 9 10 10
9 9 10 10 11 11 11 12 12 12 13 12 12 13 13 13 13 13 12 11 10 9 9 8 7 7 6 6 6 7 6 6 7 6 6 7 7 7 7 8 9 10 10
9 9 9 9 11 11 11 12 12 12 13 13 13 14 13 13 13 13 12 12 11 10 10 9 8 7 6 6 7 7 7 7 7 6 7 6 6 7 7 8 8 9 10
8 8 9 9 9 10 11 12 12 12 12 13 13 13 13 13 13 13 13 12 11 10 9 9 8 7 6 6 7 7 7 6 7 6 6 6 6 7 7 7 8 9 9
9 10 10 10 10 10 11 12 11 12 11 12 12 12 13 13 13 13 13 12 11 10 10 9 8 8 7 7 6 6 6 6 6 6 6 6 7 7 7 8 9 9 10
10 11 11 11 11 10 11 11 12 11 11 11 11 12 13 13 12 12 12 11 11 11 10 10 9 8 8 7 7 7 7 6 7 7 7 7 8 8 8 9 10 11 11
12 12 12 12 11 11 11 11 12 11 11 11 11 11 12 12 12 12 12 12 11 11 11 10 10 10 9 8 8 8 8 8 8 9 9 9 9 10 10 11 11 12 13
14 13 13 13 12 12 12 12 12 12 12 12 12 12 12 12 12 12 12 12 12 12 11 11 11 10 9 9 10 9 9 10 10 10 11 11 12 12 12 13 13 14 14
14 14 14 13 13 13 12 13 12 12 12 12 13 13 13 12 12 12 12 12 13 13 12 12 11 11 11 11 11 11 11 11 12 13 13 13 14 14 15 15 15 16 16
15 15 15 14 14 13 13 14 13 13 12 12 13 14 14 13 13 12 12 13 13 13 12 12 12 12 12 12 12 13 13 13 14 15 15 16 16 16 17 17 18 18 19
16 16 16 16 14 14 15 14 14 14 13 13 13 14 14 13 13 13 13 13 13 13 14 14 14 14 14 14 14 14 15 15 16 17 17 18 18 18 19 19 20 20 21
18 18 18 17 16 16 15 15 14 14 14 14 14 13 13 13 13 14 14 14 14 15 15 15 15 15 15 16 16 16 17 17 18 18 19 20 20 20 21 21 22 23 23
19 19 19 18 17 17 16 16 15 14 14 14 15 15 15 15 15 15 15 15 15 16 17 17 17 17 18 18 18 18 19 19 20 20 21 22 22 23 23 24 24 25 26
20 20 20 19 18 18 17 17 16 16 16 16 16 16 17 17 17 17 17 17 17 18 18 18 19 19 19 19 20 21 21 22 22 23 23 24 25 25 26 26 27 28 28
21 21 21 21 20 19 19 18 18 18 18 18 17 17 18 18 18 18 18 18 19 19 19 20 20 20 21 21 22 23 23 23 24 25 25 26 26 26 27 28 28 29 30
22 22 22 22 22 21 20 19 19 19 20 19 19 19 19 19 19 19 20 20 20 21 21 21 22 22 23 24 24 25 25 26 26 26 27 27 28 28 28 29 30 31 32
24 24 23 23 23 22 22 21 21 21 21 21 21 21 21 21 21 21 22 21 21 22 23 23 24 24 25 25 26 27 27 27 28 28 29 29 30 30 31 32 33 33 34
24 23 24 24 24 23 23 23 23 23 23 23 23 23 23 23 23 23 23 23 23 24 25 26 26 26 26 27 27 28 28 29 30 30 31 31 32 34 34 35 36 36 36
23 23 23 24 24 25 25 24 24 25 24 24 24 24 24 25 24 25 25 25 26 26 27 27 28 28 29 29 30 30 32 32 33 33 34 35 36 36 37 38 38 39 39
23 23 23 24 24 25 25 25 25 26 26 26 26 26 26 26 27 27 27 28 28 28 29 29 30 31 32 32 33 33 34 35 36 36 36 37 38 39 40 40 41 41 42

GEFSMW_500_meanwind_168.txt.gz
Wind_Speed
13 13 12 12 12 12 13 13 13 13 12 13 14 14 14 14 13 12 12 12 12 12 11 11 10 10 9 9 9 9 9 8 7 7 7 8 8 9 9 9 9 9 10
14 13 13 13 13 13 13 13 13 12 12 11 13 14 14 13 12 12 11 12 12 12 11 11 10 9 8 8 8 8 8 8 8 7 7 8 8 8 8 8 9 9 10
14 13 13 13 13 13 13 13 13 13 13 13 12 12 12 12 12 11 11 11 11 11 10 10 10 9 8 8 8 7 7 7 7 7 8 8 7 8 8 8 8 9 9
14 13 13 13 12 13 13 13 13 13 13 14 12 11 11 11 12 11 11 11 11 11 10 10 9 9 9 8 8 8 7 7 7 7 7 7 7 7 8 8 8 9 9
14 13 13 13 12 12 13 13 13 13 13 13 12 12 11 11 10 10 9 10 11 11 10 9 8 8 7 7 7 7 7 7 7 6 6 7 7 7 8 8 8 9 9
13 13 13 12 11 12 12 12 12 13 13 12 12 12 11 11 10 10 10 9 10 10 9 9 8 7 6 6 6 6 6 6 5 6 6 7 7 7 8 8 8 9 9
12 12 11 10 10 11 11 11 12 12 12 11 11 11 11 11 10 10 10 9 9 9 9 9 8 7 6 6 5 5 6 6 5 6 6 7 8 8 9 9 9 10 10
12 11 11 10 10 10 11 11 12 12 12 11 11 10 10 10 10 9 10 10 9 9 9 8 8 7 7 6 5 5 6 5 6 6 7 7 8 9 9 9 10 10 10
12 12 11 10 10 10 10 11 12 12 12 11 11 10 10 10 10 9 10 10 10 9 9 9 8 7 6 6 6 5 6 6 6 7 7 8 9 8 8 9 9 9 9
13 13 11 11 10 10 11 11 11 11 11 11 11 11 10 10 10 10 10 10 10 10 9 8 7 7 7 7 6 6 6 6 7 7 8 8 8 8 8 8 9 9 9
12 11 11 10 10 10 10 11 11 11 11 10 10 11 11 11 10 10 10 10 11 10 10 9 8 8 8 8 7 7 7 7 7 8 9 9 9 8 9 9 10 10 10
11 11 11 11 10 11 11 11 10 10 10 10 10 10 11 11 11 11 11 11 11 11 10 10 9 8 8 8 8 8 7 8 8 9 9 9 9 9 10 10 11 11 12
11 10 11 11 11 11 11 11 10 10 10 10 9 9 9 10 11 11 11 11 12 11 11 10 10 9 9 9 9 8 8 8 9 9 10 10 10 10 11 12 12 13 13
12 12 11 11 11 11 11 11 11 10 10 9 9 9 9 10 10 10 11 11 11 11 11 11 11 10 10 10 10 10 10 10 10 11 11 11 12 12 12 13 13 14 14
14 13 13 12 11 11 11 11 11 10 10 10 10 10 10 10 10 11 10 10 11 11 10 11 11 10 11 11 11 11 11 11 11 11 11 12 13 13 14 14 15 16 16
15 14 14 13 13 12 11 11 11 10 10 11 10 10 10 10 11 11 11 11 11 10 10 11 11 11 11 11 12 12 12 12 12 12 13 14 15 15 15 16 17 18 18
17 16 15 14 14 13 13 12 12 11 11 11 11 11 11 11 11 11 11 12 12 11 11 11 11 12 13 13 14 14 14 14 15 15 16 16 16 17 18 19 19 20 21
18 17 16 16 16 15 15 13 12 12 12 12 12 12 12 12 12 13 13 13 12 12 13 13 13 14 15 16 16 16 16 17 18 18 18 18 19 19 20 21 22 23 24
19 19 18 18 18 17 16 15 14 13 12 12 12 12 12 13 14 14 14 14 13 13 13 14 14 15 15 16 17 17 18 19 19 20 20 21 21 21 22 23 24 25 25
21 20 19 19 18 18 18 17 16 15 14 14 14 14 14 14 14 15 15 14 14 14 15 15 16 16 16 16 17 18 19 20 20 21 22 22 23 24 25 26 26 27 27
21 20 21 20 19 19 19 19 18 17 17 16 16 16 16 16 15 15 15 15 15 16 16 16 16 17 17 18 19 20 20 21 22 23 24 25 25 26 27 28 28 29 29
21 21 21 21 21 21 20 20 20 19 19 18 18 18 17 17 17 17 17 17 17 17 18 18 18 19 19 20 21 21 22 23 24 25 26 27 28 29 29 30 31 32 33
21 20 20 21 22 22 22 22 22 21 20 20 19 19 19 19 19 19 19 19 19 19 20 20 21 21 22 22 23 24 25 25 26 27 28 29 30 30 32 33 34 35 36
21 20 21 21 22 22 23 23 23 23 22 22 21 21 20 20 20 21 21 21 21 22 22 23 23 24 24 24 25 26 27 28 28 29 30 30 31 33 34 35 36 37 38
22 22 22 22 23 23 23 24 24 24 23 23 23 23 22 22 22 22 23 23 23 24 25 25 26 26 26 26 27 28 29 30 31 31 31 32 34 35 36 37 37 38 39
22 22 22 22 23 23 23 24 24 24 24 24 24 24 23 23 24 25 25 25 26 26 27 27 27 28 28 29 30 31 31 32 33 34 35 36 36 37 38 39 39 40 41

GEFSMW_500_meanwind_174.txt.gz
Wind_Speed
13 12 11 10 9 9 9 10 10 10 9 9 9 11 13 13 13 13 12 12 12 12 13 12 12 11 11 10 9 8 8 7 7 7 6 6 6 6 6 7 7 7 7
11 12 11 10 9 9 10 10 10 10 10 10 9 10 12 13 13 12 12 12 13 12 12 12 12 12 11 10 9 9 8 8 8 7 7 7 6 6 6 6 6 7 7
10 10 10 10 9 9 10 11 11 11 11 11 10 10 11 12 12 12 12 12 12 13 12 12 12 11 11 10 10 9 8 8 7 7 7 7 7 6 6 5 6 6 6
11 10 9 9 9 9 10 11 11 12 12 12 11 11 11 11 12 12 12 11 11 12 12 12 12 12 11 10 9 9 8 7 6 6 6 6 6 6 5 5 5 5 6
10 10 11 10 10 10 10 11 11 12 12 12 12 11 11 12 12 12 12 11 11 12 13 12 12 12 10 10 9 8 7 6 6 6 6 6 5 5 5 4 4 4 5
10 9 10 10 11 11 10 11 11 12 13 12 12 12 11 12 12 12 12 11 11 11 12 12 12 12 11 10 9 8 7 6 6 5 5 5 5 5 5 4 4 5 5
10 9 10 11 10 10 10 11 12 12 12 12 12 12 12 12 12 13 13 12 12 11 11 11 11 12 11 10 9 8 8 7 6 5 5 5 5 5 5 5 5 5 5
9 10 11 10 10 10 10 10 11 12 12 12 12 13 13 12 13 13 13 13 13 12 12 11 11 11 11 10 9 8 8 7 7 6 6 6 5 5 5 5 6 6 6
9 10 10 10 10 10 10 11 12 12 13 13 13 13 14 14 13 13 13 13 13 13 12 12 12 11 11 9 8 8 8 8 7 7 6 6 6 6 5 5 6 6 6
9 10 10 11 11 11 11 12 12 12 13 13 13 13 14 14 14 14 13 13 13 13 12 13 12 12 11 10 9 9 8 8 7 7 7 6 6 6 6 6 6 5 6
10 10 10 11 11 11 11 11 12 12 13 13 13 13 13 14 14 14 13 13 13 13 12 13 13 12 12 11 11 10 9 9 8 8 8 8 7 7 7 7 7 7 7
10 10 11 12 12 12 12 12 13 13 13 13 13 14 14 14 13 13 14 14 14 13 13 13 13 13 12 11 11 11 11 11 10 9 9 9 8 8 8 8 8 8 8
9 9 10 11 11 11 13 13 13 14 14 14 14 14 14 14 14 13 14 15 14 14 13 14 14 13 13 12 12 12 11 11 11 10 10 10 10 9 9 9 10 10 10
9 9 10 10 12 12 13 13 13 14 14 14 14 15 14 14 14 14 14 15 15 14 14 15 14 14 14 13 13 12 12 11 11 11 11 11 11 11 11 11 11 12 11
10 9 11 11 12 13 14 14 13 13 13 13 14 14 14 15 15 15 14 14 15 15 15 15 14 15 15 14 14 13 13 13 13 12 12 12 12 12 13 13 13 13 13
11 10 10 11 12 14 14 14 14 14 13 14 14 15 15 15 15 14 14 14 14 16 15 14 14 14 14 14 14 14 14 13 13 14 14 14 15 15 15 15 14 14 15
11 11 10 10 12 12 14 15 14 14 14 14 14 14 15 15 15 15 14 14 14 14 14 15 14 15 15 14 14 14 14 14 14 15 15 16 16 17 17 16 16 17 18
11 11 10 10 11 13 13 14 14 14 14 14 14 15 14 15 15 15 15 15 15 15 15 15 15 15 15 14 14 14 14 15 15 16 16 17 18 18 18 18 19 19 20
13 13 12 12 13 14 15 15 15 15 14 15 15 15 15 14 15 15 16 16 16 16 16 16 16 16 15 15 16 16 16 17 18 18 18 18 19 19 20 21 22 22 23
14 14 14 14 15 15 15 16 16 16 16 16 16 16 16 15 15 16 15 14 15 16 16 16 16 16 16 17 17 17 18 19 20 20 19 20 20 22 22 23 24 24 25
15 15 15 15 16 16 17 17 17 17 17 17 17 17 17 17 16 16 15 16 16 16 16 17 17 17 18 18 18 18 19 19 19 20 20 21 22 23 24 24 25 26 27
15 15 15 16 16 17 18 18 18 19 19 19 19 19 19 18 18 17 17 17 17 18 18 18 19 19 19 19 19 20 20 21 21 21 22 23 24 24 25 26 28 29 30
16 16 16 17 17 18 19 19 19 19 19 19 20 21 21 21 21 20 19 19 19 19 19 20 20 20 20 20 20 21 21 21 22 23 24 25 26 27 28 29 30 31 32
17 18 18 19 19 20 20 21 20 20 19 20 21 22 23 23 23 23 22 22 22 22 22 21 22 22 22 22 22 22 23 24 25 26 27 28 29 29 30 31 33 34 35
19 18 18 19 20 21 21 21 21 21 21 21 22 23 24 24 24 24 24 25 25 24 24 24 24 24 24 24 25 26 27 27 28 29 29 30 31 32 33 34 35 36 37
20 19 20 20 21 21 21 22 22 23 23 23 23 24 24 25 26 26 26 26 27 26 26 26 25 25 26 26 27 28 28 29 30 30 31 32 33 34 34 36 37 38 39

GEFSMW_500_meanwind_180.txt.gz
Wind_Speed
12 12 12 13 13 12 12 12 12 12 13 13 12 12 12 12 12 12 12 12 12 12 12 12 12 11 11 10 10 9 9 8 8 7 7 7 7 7 7 7 7 7 8
11 11 11 12 12 12 13 13 12 12 12 12 13 13 12 12 12 13 12 12 13 13 12 12 12 11 11 11 10 10 9 9 9 9 8 8 8 8 7 7 7 8 7
12 10 9 10 12 13 13 14 14 14 14 14 13 12 12 11 12 13 13 12 13 13 14 13 12 12 12 11 11 10 9 9 9 9 9 9 8 8 8 8 8 8 8
12 11 11 11 12 13 14 15 14 15 14 13 13 13 12 12 13 13 13 14 13 14 14 13 13 12 12 11 11 10 10 10 9 9 9 9 8 8 8 8 8 8 8
13 13 13 13 12 13 14 15 15 15 14 14 13 13 13 13 13 13 13 13 13 13 14 14 14 13 12 12 11 11 10 10 9 9 8 8 8 8 8 8 9 8 8
14 14 14 13 13 14 14 16 16 15 15 15 15 14 14 14 14 13 13 13 13 14 14 14 14 13 12 12 12 11 11 10 10 9 9 9 9 8 8 8 8 8 8
14 15 14 14 14 14 15 15 16 16 16 15 15 15 14 14 13 13 13 13 13 13 14 14 14 13 13 13 12 11 10 10 10 9 9 9 9 9 9 9 9 9 9
15 15 15 14 14 15 15 16 17 16 16 15 14 15 15 14 14 14 13 13 13 13 13 13 13 13 13 12 12 11 10 10 10 9 9 9 9 9 9 9 9 9 9
14 15 15 15 15 15 15 16 16 17 16 16 15 15 15 15 15 15 14 13 13 13 13 13 13 13 13 12 12 12 11 10 10 10 10 9 9 9 10 10 10 9 9
14 14 14 15 15 15 15 16 17 17 17 17 16 16 16 16 16 15 14 14 13 13 13 13 14 14 13 13 12 12 11 11 11 11 11 11 11 11 11 11 11 10 10
15 15 15 15 15 14 14 15 16 17 17 17 17 16 16 16 16 15 15 14 14 14 14 15 14 14 13 13 12 12 12 12 12 11 11 12 12 12 12 12 11 11 11
15 16 15 15 15 15 15 15 15 16 16 17 17 17 17 16 16 16 16 15 15 15 15 15 14 14 14 14 14 13 13 12 13 13 13 13 13 13 13 13 13 12 12
15 16 16 15 15 15 16 15 16 16 16 16 17 18 17 16 15 15 15 15 15 15 15 15 15 15 15 14 14 14 13 13 13 14 14 14 14 14 14 14 13 13 13
14 14 16 16 15 15 15 16 16 16 16 17 17 17 17 17 16 16 16 16 15 15 15 16 16 16 16 16 15 15 15 15 15 15 15 15 15 15 15 14 14 15 15
14 14 14 15 15 15 16 17 17 17 16 17 17 18 18 18 17 17 17 17 16 16 16 16 16 16 16 16 16 16 16 16 15 16 16 16 16 15 15 15 15 16 17
14 14 14 14 15 16 17 17 17 17 17 17 18 18 18 18 18 18 17 17 17 17 16 17 16 16 16 16 16 16 16 16 16 16 16 16 16 16 17 17 17 18 18
13 13 13 14 16 17 17 18 18 18 19 18 18 18 18 18 18 18 17 17 18 17 17 17 17 16 16 16 16 17 17 17 17 18 18 18 18 18 18 19 19 19 20
13 13 14 14 16 17 18 17 18 18 17 18 18 18 18 18 18 18 18 18 18 18 18 17 16 16 16 16 17 18 19 19 19 19 19 19 20 20 20 20 21 21 22
13 13 13 14 15 16 17 17 17 17 17 17 18 18 19 18 18 18 18 17 17 17 17 17 17 17 18 18 19 19 19 19 20 20 20 20 21 21 21 22 22 23 24
14 14 13 14 15 16 16 17 17 17 18 18 18 18 18 18 19 19 18 18 18 18 18 18 18 19 19 19 20 20 20 21 21 22 22 22 23 23 23 24 25 25 26
16 15 15 16 16 16 16 17 16 16 18 19 19 19 19 18 19 19 19 19 19 19 20 20 20 20 20 21 21 21 22 22 23 24 24 24 24 25 26 26 27 27 28
17 17 16 17 17 17 17 17 18 18 18 19 20 19 20 19 19 20 20 21 21 21 21 21 21 21 22 22 21 22 22 23 23 24 24 24 25 26 27 28 29 29 29
18 18 18 18 18 18 18 18 19 20 20 20 20 20 20 21 21 21 21 20 21 21 22 22 22 22 23 23 23 23 24 24 25 25 26 26 27 28 29 30 31 31 31
19 19 19 19 19 19 20 20 20 20 20 21 21 21 20 21 21 21 22 22 23 23 24 24 24 24 25 25 26 27 27 27 27 28 29 29 29 30 31 32 33 32 33
20 20 20 20 20 20 21 20 20 20 20 21 21 22 22 22 22 23 23 24 25 25 25 25 26 26 27 28 28 29 30 30 30 31 31 31 32 33 34 34 34 35 36
19 19 19 21 22 22 22 22 22 21 21 21 21 22 22 23 24 25 25 26 27 28 28 28 29 29 30 30 30 31 32 32 31 32 32 33 34 35 36 37 37 38 38

GEFSMW_500_meanwind_186.txt.gz
Wind_Speed
12 12 12 13 13 14 14 14 14 14 15 15 15 15 15 14 14 14 14 13 13 13 12 12 11 10 10 11 10 10 9 9 8 8 7 6 6 5 5 6 6 7 8
13 12 12 12 13 13 14 15 15 15 16 16 15 14 14 15 15 14 14 14 13 13 12 12 11 10 10 11 11 10 9 9 9 8 8 7 7 6 6 6 7 8 8
13 13 13 13 12 12 13 15 15 15 15 16 15 14 13 13 13 13 14 14 14 13 13 13 12 11 11 11 11 10 10 9 9 9 8 8 7 7 7 7 7 8 8
13 13 14 13 13 13 13 14 15 14 14 15 15 13 12 13 12 13 14 14 13 13 13 13 13 12 12 11 11 11 11 10 10 9 9 8 7 7 7 7 7 8 8
12 13 14 14 14 13 13 13 15 15 14 14 15 14 13 13 13 13 14 13 13 13 13 13 13 12 12 11 11 11 12 11 11 10 9 9 8 8 7 7 8 8 8
13 13 14 14 14 14 13 13 13 14 15 15 15 15 14 14 13 13 14 14 13 13 13 14 14 13 13 12 11 11 11 12 11 10 10 9 9 8 8 7 8 8 8
13 13 13 13 13 13 13 14 14 15 15 16 16 16 15 15 14 14 15 15 14 13 13 14 13 13 13 13 12 11 11 11 11 10 10 10 10 9 8 8 8 8 8
14 14 14 14 14 14 14 14 14 15 16 16 16 16 16 16 15 14 15 15 15 15 14 14 14 13 13 12 12 12 11 11 11 11 10 10 10 10 9 9 9 9 9
14 14 15 15 15 15 15 15 15 15 15 16 17 17 17 16 16 15 14 15 15 15 15 15 14 14 13 12 12 12 11 12 12 11 11 11 11 10 10 10 10 10 10
14 14 14 15 15 15 15 16 16 15 16 16 16 17 17 17 16 16 15 16 16 16 16 15 14 14 13 13 13 12 12 12 12 12 11 11 11 12 11 11 11 11 11
15 14 15 15 16 15 15 15 15 15 14 15 16 16 17 16 16 15 15 16 16 16 16 16 15 14 14 14 14 13 13 13 13 13 12 12 12 12 12 12 12 12 12
15 15 15 14 15 15 14 14 15 15 14 14 15 16 16 16 15 16 16 16 16 16 16 16 15 15 15 15 15 14 14 14 14 14 14 13 13 13 13 13 13 13 13
14 15 15 14 14 14 14 14 15 15 16 16 16 16 16 16 15 15 16 16 15 15 16 15 15 15 15 15 15 15 15 15 15 15 15 15 14 14 14 14 15 15 15
15 15 16 15 15 15 15 15 16 16 16 16 17 17 16 16 15 16 16 16 15 15 15 15 16 16 16 15 15 16 16 16 16 16 15 16 15 15 15 15 16 16 16
15 15 16 16 16 16 16 16 17 16 17 17 17 18 17 17 17 17 17 17 15 15 16 16 17 17 17 16 16 17 16 16 16 16 16 16 17 16 16 16 16 17 17
14 15 15 16 16 16 17 17 17 18 18 18 18 18 18 19 18 18 18 18 17 16 16 16 16 17 17 17 17 16 16 16 16 17 17 16 17 17 18 18 18 18 19
14 15 15 15 16 16 16 17 18 18 18 19 18 18 19 19 19 20 20 19 18 18 17 17 17 17 17 17 17 16 16 16 16 16 17 17 17 17 18 19 19 20 20
15 15 16 16 16 16 16 16 17 17 18 18 18 18 20 20 21 21 21 20 20 19 18 18 18 18 18 17 16 17 17 17 17 17 18 18 19 19 19 20 22 22 22
15 16 16 15 16 16 17 16 17 17 18 19 18 19 19 20 21 21 21 21 20 20 20 19 19 19 18 17 18 18 18 19 18 18 19 20 20 21 21 21 22 23 24
15 15 15 15 15 16 17 18 17 17 18 19 20 20 20 20 20 20 20 20 20 21 21 21 21 19 18 19 19 19 20 20 20 20 20 21 22 23 23 24 25 25 25
16 15 16 16 16 16 16 16 16 17 17 18 18 19 19 20 20 20 20 20 20 20 20 20 20 20 20 20 20 20 21 21 22 23 24 24 25 26 26 26 26 27 27
17 17 17 16 16 16 16 16 16 16 16 17 17 18 18 19 19 19 20 20 19 19 19 20 21 21 21 21 21 22 22 23 24 25 25 26 26 26 27 27 28 29 30
18 18 17 17 17 17 16 16 16 16 16 17 17 17 17 19 19 20 20 20 20 21 22 22 22 22 23 23 23 24 25 25 25 26 27 27 27 28 28 28 30 30 32
20 19 18 18 18 17 17 18 18 18 18 18 18 18 18 19 19 20 21 21 22 23 24 24 24 24 24 25 25 26 26 27 27 28 28 28 29 30 30 31 33 34 34
20 20 20 19 19 20 19 19 19 18 19 19 18 19 19 20 20 21 22 22 23 23 24 25 25 25 25 26 27 28 29 29 29 30 31 32 32 33 34 35 35 36 36
21 21 21 21 20 20 20 20 21 20 19 19 19 19 20 20 21 21 22 23 23 24 24 26 26 27 28 28 29 29 30 32 33 34 34 35 35 35 36 36 37 37 38